Location: Garbet
(42.8837°N, 1.2115°E)
Time: 22:57:25
(UTC+00:00)

CZ-4C R/B - Pass Details

Date: 13 December 2025
Orbit: 484 x 1495 km, 63.4° (Epoch: 19 January)

Event Time Altitude Azimuth Distance (km) Brightness Sun altitude
Rises 16:51:08 0° 324° (NW) 3,749 5.7 -5.6°
Reaches altitude 10° 16:53:30 10° 325° (NW) 2,929 5.1 -6.0°
Maximum altitude 17:00:44 85° 54° (NE) 1,287 3.1 -7.2°
Drops below altitude 10° 17:09:37 10° 144° (SE) 3,548 5.3 -8.7°
Sets 17:12:45 0° 145° (SE) 4,578 5.9 -9.2°
